GW3838 Weather Reports


Display with metric or nautical units.
time (UTC)temp
F
wind
direction
speed
MPH
gust
MPH
rain 1hr
in
rain 24hr
in
rain mn
in
humidity
%
barometer
mb
20260831022232 75 104 0.0 0.0 0.00 0.00 0.00 98 1025.9
20260831021727 76 104 0.0 0.0 0.00 0.00 0.00 98 1025.9
20260831021226 76 104 0.0 0.0 0.00 0.00 0.00 98 1025.8
20260831020723 76 104 0.0 0.0 0.00 0.00 0.00 98 1025.9
20260831020222 76 104 0.0 0.0 0.00 0.00 0.00 98 1025.8
20260831015718 76 104 0.0 0.0 0.00 0.00 0.00 98 1025.6
20260831015213 76 104 0.0 1.0 0.00 0.00 0.00 98 1025.9
20260831014708 76 104 0.0 0.0 0.00 0.00 0.00 97 1025.7
20260831014203 76 104 1.0 1.0 0.00 0.00 0.00 97 1025.7
20260831013659 76 104 1.0 1.0 0.00 0.00 0.00 97 1025.7
20260831013158 76 104 1.0 1.0 0.00 0.00 0.00 97 1025.9
20260831012653 77 102 0.0 1.0 0.00 0.00 0.00 97 1025.7
20260831012149 77 102 1.0 1.0 0.00 0.00 0.00 97 1025.6
20260831011647 77 102 0.0 1.0 0.00 0.00 0.00 97 1025.4
20260831011144 77 102 0.0 1.0 0.00 0.00 0.00 97 1025.4
20260831010639 77 102 1.0 1.0 0.00 0.00 0.00 97 1025.5
20260831010134 77 102 1.0 1.0 0.00 0.00 0.00 96 1025.4
20260831005628 77 102 0.0 1.0 0.00 0.00 0.00 96 1025.3
20260831005118 77 102 1.0 1.0 0.00 0.00 0.00 96 1025.0
20260831004614 77 108 1.0 1.0 0.00 0.00 0.00 96 1025.2
20260831004109 77 108 0.0 1.0 0.00 0.00 0.00 95 1024.9
20260831003605 78 108 0.0 0.0 0.00 0.00 0.00 95 1025.1
20260831003101 78 107 1.0 1.0 0.00 0.00 0.00 95 1025.1
20260831002559 78 114 1.0 1.0 0.00 0.00 0.00 94 1025.2
20260831002055 78 114 0.0 1.0 0.00 0.00 0.00 94 1025.1
20260831001550 78 115 1.0 1.0 0.00 0.00 0.00 93 1025.0
20260831001047 78 115 0.0 0.0 0.00 0.00 0.00 93 1025.0
20260831000543 78 115 0.0 1.0 0.00 0.00 0.00 93 1024.8
20260831000042 79 115 0.0 1.0 0.00 0.00 0.00 93 1025.1
20260830235541 79 115 0.0 1.0 0.00 0.00 0.00 92 1025.1
20260830235036 80 115 1.0 1.0 0.00 0.00 0.00 91 1024.8
20260830234531 80 115 0.0 1.0 0.00 0.00 0.00 90 1025.0
20260830234026 80 115 1.0 1.0 0.00 0.00 0.00 89 1024.7
20260830233521 80 115 0.0 1.0 0.00 0.00 0.00 89 1024.7
20260830233018 80 115 1.0 2.0 0.00 0.00 0.00 89 1024.8
20260830232514 80 101 3.0 3.0 0.00 0.00 0.00 89 1024.8
20260830232010 80 142 1.0 2.0 0.00 0.00 0.00 89 1024.8
20260830231505 81 115 1.0 1.0 0.00 0.00 0.00 88 1024.8
20260830231004 81 125 0.0 2.0 0.00 0.00 0.00 88 1024.8
20260830230500 81 98 3.0 5.0 0.00 0.00 0.00 87 1024.7
20260830225958 82 108 2.0 5.0 0.00 0.00 0.00 88 1024.8
20260830225455 82 121 1.0 1.0 0.00 0.00 0.00 88 1024.7
20260830224954 81 107 0.0 0.0 0.00 0.00 0.00 90 1024.8
20260830224453 80 107 0.0 1.0 0.00 0.00 0.00 90 1024.9
20260830223950 80 117 1.0 1.0 0.00 0.00 0.00 90 1024.9
20260830223446 80 133 2.0 3.0 0.00 0.00 0.00 90 1024.9
20260830222944 80 126 2.0 3.0 0.00 0.00 0.00 90 1025.0
20260830222440 80 108 0.0 2.0 0.00 0.00 0.00 91 1024.9
20260830221936 80 89 1.0 3.0 0.00 0.00 0.00 91 1024.7
20260830221432 80 119 3.0 3.0 0.00 0.00 0.00 90 1024.7
20260830220927 81 120 1.0 1.0 0.00 0.00 0.00 90 1025.1
20260830220422 81 72 1.0 5.0 0.00 0.00 0.00 89 1025.1
20260830215919 82 348 2.0 6.0 0.00 0.00 0.00 87 1025.2
20260830215414 82 83 1.0 5.0 0.00 0.00 0.00 87 1025.1
20260830214909 82 123 1.0 3.0 0.00 0.00 0.00 87 1025.2
20260830214404 83 108 5.0 6.0 0.00 0.00 0.00 85 1025.3
20260830213858 83 108 3.0 5.0 0.00 0.00 0.00 84 1025.1
20260830213354 84 77 3.0 5.0 0.00 0.00 0.00 83 1025.2
20260830212849 84 96 3.0 6.0 0.00 0.00 0.00 82 1025.2
20260830212345 83 90 4.0 5.0 0.00 0.00 0.00 81 1025.1
20260830211844 83 124 0.0 6.0 0.00 0.00 0.00 82 1025.2
20260830211338 82 143 3.0 5.0 0.00 0.00 0.00 83 1025.2
20260830210834 82 187 3.0 3.0 0.00 0.00 0.00 84 1025.0
20260830210333 82 176 3.0 5.0 0.00 0.00 0.00 84 1025.1
20260830205832 82 178 5.0 7.0 0.00 0.00 0.00 84 1025.2
20260830205331 82 166 3.0 6.0 0.00 0.00 0.00 86 1025.4
20260830204826 82 155 5.0 9.0 0.00 0.00 0.00 85 1025.2
20260830204325 82 183 7.0 9.0 0.00 0.00 0.00 85 1025.1
20260830203821 83 169 6.0 8.0 0.00 0.00 0.00 84 1025.2
20260830203317 84 179 6.0 9.0 0.00 0.00 0.00 84 1025.2
20260830202816 85 100 0.0 0.0 0.00 0.00 0.00 82 1025.0
20260830202312 84 100 0.0 1.0 0.00 0.00 0.00 82 1025.0
20260830201807 84 100 0.0 1.0 0.00 0.00 0.00 83 1025.1
20260830201301 84 100 0.0 0.0 0.00 0.00 0.00 85 1025.2
20260830200757 84 101 1.0 2.0 0.00 0.00 0.00 84 1025.2
20260830200256 84 85 1.0 2.0 0.00 0.00 0.00 82 1025.1
20260830195752 84 116 0.0 2.0 0.00 0.00 0.00 83 1025.2
20260830195251 84 93 0.0 1.0 0.00 0.00 0.00 84 1025.4
20260830194748 84 86 2.0 2.0 0.00 0.00 0.00 83 1025.6
20260830194243 84 101 1.0 2.0 0.00 0.00 0.00 82 1025.5
20260830193737 84 106 2.0 2.0 0.00 0.00 0.00 81 1025.6
20260830193232 85 111 0.0 2.0 0.00 0.00 0.00 82 1025.5
20260830192727 85 116 2.0 3.0 0.00 0.00 0.00 79 1025.7
20260830192222 84 131 0.0 5.0 0.00 0.00 0.00 79 1025.7
20260830191719 85 131 1.0 2.0 0.00 0.00 0.00 80 1025.4
20260830191218 85 116 1.0 2.0 0.00 0.00 0.00 80 1025.6
20260830190714 85 101 2.0 3.0 0.00 0.00 0.00 80 1025.6
20260830190208 85 116 1.0 2.0 0.00 0.00 0.00 79 1025.6
20260830185707 86 75 2.0 2.0 0.00 0.00 0.00 78 1025.6
20260830185203 87 92 2.0 2.0 0.00 0.00 0.00 76 1025.9
20260830184702 87 59 3.0 5.0 0.00 0.00 0.00 74 1025.8
20260830184201 87 180 1.0 3.0 0.00 0.00 0.00 76 1025.9
20260830183701 87 338 4.0 5.0 0.00 0.00 0.00 78 1025.9
20260830183157 86 63 1.0 5.0 0.00 0.00 0.00 80 1026.1
20260830182652 86 159 1.0 5.0 0.00 0.00 0.00 80 1026.0
20260830182149 86 104 2.0 5.0 0.00 0.00 0.00 81 1026.1
20260830181645 86 74 2.0 3.0 0.00 0.00 0.00 79 1026.1
20260830181144 86 81 2.0 6.0 0.00 0.00 0.00 83 1026.0
20260830180643 86 87 3.0 6.0 0.00 0.00 0.00 80 1026.1
20260830180138 86 70 2.0 5.0 0.00 0.00 0.00 79 1026.5
20260830175637 85 157 1.0 3.0 0.00 0.00 0.00 79 1026.4
20260830175133 84 149 4.0 6.0 0.00 0.00 0.00 81 1026.5
20260830174628 83 142 1.0 3.0 0.00 0.00 0.00 82 1026.6
20260830174124 84 86 1.0 3.0 0.00 0.00 0.00 84 1026.6
20260830173618 84 88 1.0 5.0 0.00 0.00 0.00 85 1026.6
20260830173113 84 352 5.0 7.0 0.00 0.00 0.00 83 1026.7
20260830172611 83 69 1.0 5.0 0.00 0.00 0.00 87 1026.6
20260830172107 83 100 1.0 1.0 0.00 0.00 0.00 87 1026.7
20260830171602 82 107 0.0 1.0 0.00 0.00 0.00 88 1027.0
20260830171057 82 85 1.0 2.0 0.00 0.00 0.00 89 1027.0
20260830170556 82 101 1.0 2.0 0.00 0.00 0.00 88 1027.2
20260830170055 82 102 2.0 2.0 0.00 0.00 0.00 87 1027.3
20260830165551 82 91 0.0 2.0 0.00 0.00 0.00 88 1027.4
20260830165046 82 57 2.0 5.0 0.00 0.00 0.00 87 1027.5
20260830164542 82 88 1.0 2.0 0.00 0.00 0.00 88 1027.6
20260830164038 81 97 1.0 5.0 0.00 0.00 0.00 88 1027.6
20260830163535 81 95 1.0 3.0 0.00 0.00 0.00 89 1027.7
20260830163034 81 79 2.0 3.0 0.00 0.00 0.00 89 1027.9
20260830162530 80 107 1.0 3.0 0.00 0.00 0.00 89 1028.0
20260830162031 80 115 3.0 6.0 0.00 0.00 0.00 90 1028.2
20260830161525 80 94 5.0 7.0 0.00 0.00 0.00 90 1028.1
20260830161020 80 91 3.0 6.0 0.00 0.00 0.00 90 1028.2
20260830160516 80 88 2.0 2.0 0.00 0.00 0.00 91 1028.3
20260830160011 80 62 3.0 3.0 0.00 0.00 0.00 91 1028.3
20260830155507 80 82 2.0 6.0 0.00 0.00 0.00 92 1028.2
20260830155003 79 111 3.0 6.0 0.00 0.00 0.00 92 1028.2
20260830154457 79 104 3.0 5.0 0.00 0.00 0.00 92 1028.2
20260830153954 80 114 1.0 3.0 0.00 0.00 0.00 92 1028.3
20260830153450 80 72 2.0 2.0 0.00 0.00 0.00 91 1028.4
20260830152949 80 103 3.0 3.0 0.00 0.00 0.00 90 1028.3
20260830152444 80 65 4.0 5.0 0.00 0.00 0.00 91 1028.3
20260830151943 80 35 3.0 5.0 0.00 0.00 0.00 91 1028.3
20260830151437 80 158 4.0 7.0 0.00 0.00 0.00 90 1028.2
20260830150938 79 81 0.0 3.0 0.00 0.00 0.00 92 1028.3
20260830150432 79 89 1.0 6.0 0.00 0.00 0.00 92 1028.3
20260830145926 78 86 2.0 3.0 0.00 0.00 0.00 92 1028.1
20260830145427 78 105 3.0 6.0 0.00 0.00 0.00 93 1028.3
20260830144922 78 56 2.0 2.0 0.00 0.00 0.00 93 1028.0
20260830144418 78 105 3.0 3.0 0.00 0.00 0.00 94 1028.3
20260830143913 78 114 0.0 1.0 0.00 0.00 0.00 94 1028.2
20260830143408 78 33 3.0 5.0 0.00 0.00 0.00 94 1028.1
20260830142907 78 93 1.0 2.0 0.00 0.00 0.00 94 1028.0
20260830142402 78 91 1.0 2.0 0.00 0.00 0.00 94 1028.2
20260830141857 78 75 1.0 2.0 0.00 0.00 0.00 94 1028.3
20260830141353 78 107 0.0 2.0 0.00 0.00 0.00 95 1028.4
20260830140848 78 88 2.0 3.0 0.00 0.00 0.00 96 1028.2
20260830140342 78 107 1.0 3.0 0.00 0.00 0.00 97 1028.2
20260830135836 77 117 2.0 2.0 0.00 0.00 0.00 99 1028.1
20260830135332 77 85 1.0 2.0 0.00 0.00 0.00 99 1028.1
20260830134828 77 126 1.0 3.0 0.00 0.00 0.00 99 1028.0
20260830134328 77 94 1.0 2.0 0.00 0.00 0.00 99 1027.9
20260830133824 77 90 1.0 3.0 0.00 0.00 0.00 99 1027.8
20260830133320 76 113 0.0 3.0 0.00 0.00 0.00 99 1027.9
20260830132815 76 72 3.0 3.0 0.00 0.00 0.00 99 1027.7
20260830132311 75 39 3.0 5.0 0.00 0.00 0.00 99 1027.7
20260830131809 76 87 1.0 3.0 0.00 0.00 0.00 99 1027.7
20260830131304 76 37 3.0 3.0 0.00 0.00 0.00 99 1027.8
20260830130759 76 81 1.0 2.0 0.00 0.00 0.00 99 1027.6
20260830130254 75 113 2.0 2.0 0.00 0.00 0.00 99 1027.5
20260830125753 75 110 1.0 1.0 0.00 0.00 0.00 99 1027.5
20260830125249 75 119 1.0 2.0 0.00 0.00 0.00 99 1027.5
20260830124746 74 108 1.0 1.0 0.00 0.00 0.00 99 1027.6
20260830124241 74 101 0.0 0.0 0.00 0.00 0.00 99 1027.1
20260830123738 74 95 1.0 1.0 0.00 0.00 0.00 99 1027.1
20260830123234 74 74 1.0 1.0 0.00 0.00 0.00 99 1027.4
20260830122732 74 98 1.0 1.0 0.00 0.00 0.00 99 1027.2
20260830122227 74 107 1.0 2.0 0.00 0.00 0.00 99 1027.2
20260830121722 74 118 0.0 2.0 0.00 0.00 0.00 99 1027.1
20260830121221 74 121 0.0 2.0 0.00 0.00 0.00 99 1027.0
20260830120716 74 23 3.0 3.0 0.00 0.00 0.00 99 1027.0
20260830120212 74 128 0.0 0.0 0.00 0.00 0.00 99 1027.0
20260830115708 73 117 0.0 0.0 0.00 0.00 0.00 99 1027.0
20260830115204 73 96 0.0 0.0 0.00 0.00 0.00 99 1027.0
20260830114701 73 110 1.0 2.0 0.00 0.00 0.00 99 1027.0
20260830114200 73 117 0.0 2.0 0.00 0.00 0.00 99 1027.0
20260830113655 73 82 1.0 2.0 0.00 0.00 0.00 99 1026.9
20260830113150 73 119 0.0 2.0 0.00 0.00 0.00 99 1026.9
20260830112647 73 111 0.0 1.0 0.00 0.00 0.00 99 1026.9
20260830112143 73 117 0.0 1.0 0.00 0.00 0.00 99 1026.9
20260830111638 73 108 0.0 2.0 0.00 0.00 0.00 99 1027.0
20260830111134 73 88 1.0 1.0 0.00 0.00 0.00 99 1026.7
20260830110628 73 88 0.0 0.0 0.00 0.00 0.00 99 1026.6
20260830110124 73 89 0.0 0.0 0.00 0.00 0.00 99 1026.5
20260830105618 73 89 0.0 0.0 0.00 0.00 0.00 99 1026.5
20260830105114 73 89 0.0 0.0 0.00 0.00 0.00 99 1026.4
20260830104611 73 89 0.0 0.0 0.00 0.00 0.00 99 1026.6
20260830104108 73 91 1.0 1.0 0.00 0.00 0.00 99 1026.4
20260830103606 73 92 0.0 1.0 0.00 0.00 0.00 99 1026.2
20260830103101 73 93 0.0 1.0 0.00 0.00 0.00 99 1026.2
20260830102600 73 93 0.0 0.0 0.00 0.00 0.00 99 1026.1
20260830102056 73 98 0.0 1.0 0.00 0.00 0.00 99 1026.1
20260830101552 73 95 1.0 2.0 0.00 0.00 0.00 99 1026.1
20260830101051 73 99 1.0 2.0 0.00 0.00 0.00 99 1026.0
20260830100545 73 117 0.0 0.0 0.00 0.00 0.00 99 1026.0
20260830100045 73 118 0.0 0.0 0.00 0.00 0.00 99 1025.9
20260830095540 73 118 0.0 1.0 0.00 0.00 0.00 99 1025.7
20260830095036 73 118 1.0 3.0 0.00 0.00 0.00 99 1025.8
20260830094532 73 107 1.0 1.0 0.00 0.00 0.00 99 1025.9
20260830094032 73 98 0.0 1.0 0.00 0.00 0.00 99 1026.1
20260830093527 73 93 0.0 1.0 0.00 0.00 0.00 99 1025.4
20260830093024 73 93 0.0 2.0 0.00 0.00 0.00 99 1025.4
20260830092518 73 89 0.0 2.0 0.00 0.00 0.00 99 1025.5
20260830092016 73 91 1.0 2.0 0.00 0.00 0.00 99 1025.6
20260830091510 73 89 0.0 2.0 0.00 0.00 0.00 99 1025.6
20260830091009 73 89 0.0 2.0 0.00 0.00 0.00 99 1025.5
20260830090504 73 94 0.0 1.0 0.00 0.00 0.00 99 1025.6
20260830085959 73 88 0.0 2.0 0.00 0.00 0.00 99 1025.6
20260830085454 73 94 1.0 2.0 0.00 0.00 0.00 99 1025.5
20260830084949 73 84 1.0 2.0 0.00 0.00 0.00 99 1025.4
20260830084445 73 79 1.0 3.0 0.00 0.00 0.00 99 1025.8
20260830083940 73 96 1.0 1.0 0.00 0.00 0.00 99 1025.5
20260830083435 73 97 0.0 0.0 0.00 0.00 0.00 99 1025.6
20260830082935 73 96 0.0 0.0 0.00 0.00 0.00 99 1025.5
20260830082430 73 96 0.0 0.0 0.00 0.00 0.00 99 1025.5
20260830081925 73 96 0.0 0.0 0.00 0.00 0.00 99 1025.4
20260830081420 73 96 0.0 1.0 0.00 0.00 0.00 99 1025.1
20260830080919 73 96 0.0 0.0 0.00 0.00 0.00 99 1025.5
20260830080416 73 95 1.0 1.0 0.00 0.00 0.00 99 1025.6
20260830075915 73 94 1.0 1.0 0.00 0.00 0.00 99 1025.7
20260830075410 73 94 0.0 2.0 0.00 0.00 0.00 99 1025.7
20260830074906 73 105 1.0 1.0 0.00 0.00 0.00 99 1025.5
20260830074401 73 103 1.0 1.0 0.00 0.00 0.00 99 1025.5
20260830073857 73 106 0.0 0.0 0.00 0.00 0.00 99 1025.8
20260830073353 73 106 0.0 1.0 0.00 0.00 0.00 99 1025.9
20260830072848 73 104 1.0 1.0 0.00 0.00 0.00 99 1025.7
20260830072344 73 118 0.0 0.0 0.00 0.00 0.00 99 1025.9
20260830071843 73 118 0.0 0.0 0.00 0.00 0.00 99 1025.9
20260830071337 73 119 0.0 0.0 0.00 0.00 0.00 99 1025.9
20260830070836 73 119 0.0 0.0 0.00 0.00 0.00 99 1025.7
20260830070331 73 119 0.0 0.0 0.00 0.00 0.00 99 1025.9
20260830065830 73 119 0.0 0.0 0.00 0.00 0.00 99 1026.0
20260830065325 73 119 0.0 0.0 0.00 0.00 0.00 99 1025.9
20260830064823 73 118 0.0 0.0 0.00 0.00 0.00 99 1025.8
20260830064319 73 119 0.0 0.0 0.00 0.00 0.00 99 1026.0
20260830063818 73 119 1.0 2.0 0.00 0.00 0.00 99 1025.9
20260830063314 73 109 0.0 0.0 0.00 0.00 0.00 99 1025.8
20260830062808 73 108 0.0 0.0 0.00 0.00 0.00 99 1025.8
20260830062305 73 106 0.0 0.0 0.00 0.00 0.00 99 1026.0
20260830061756 74 107 0.0 0.0 0.00 0.00 0.00 99 1025.9
20260830061252 74 112 0.0 0.0 0.00 0.00 0.00 99 1026.1
20260830060748 74 112 0.0 0.0 0.00 0.00 0.00 99 1026.0
20260830060245 74 111 0.0 0.0 0.00 0.00 0.00 99 1026.0
20260830055739 74 111 0.0 0.0 0.00 0.00 0.00 99 1026.4
20260830055236 74 111 0.0 0.0 0.00 0.00 0.00 99 1026.1
20260830054730 74 111 0.0 0.0 0.00 0.00 0.00 99 1026.1
20260830054226 74 111 0.0 0.0 0.00 0.00 0.00 99 1026.4
20260830053722 74 111 0.0 0.0 0.00 0.00 0.00 99 1026.5
20260830053221 74 111 0.0 0.0 0.00 0.00 0.00 99 1026.3
20260830052716 74 111 0.0 0.0 0.00 0.00 0.00 99 1026.2
20260830052211 74 111 0.0 0.0 0.00 0.00 0.00 99 1026.4
20260830051711 74 111 0.0 0.0 0.00 0.00 0.00 99 1026.5
20260830051207 74 111 0.0 0.0 0.00 0.00 0.00 99 1026.7
20260830050705 74 111 0.0 1.0 0.00 0.00 0.00 99 1026.5
20260830050201 74 111 0.0 2.0 0.00 0.00 0.00 99 1026.5
20260830045659 74 100 0.0 0.0 0.00 0.00 0.00 99 1026.5
20260830045155 74 100 0.0 1.0 0.00 0.00 0.00 99 1026.7
20260830044653 74 89 2.0 2.0 0.00 0.00 0.00 99 1026.8
20260830044149 74 108 2.0 2.0 0.00 0.00 0.00 99 1026.8
20260830043644 75 115 1.0 2.0 0.00 0.00 0.00 99 1026.9
20260830043143 75 94 1.0 3.0 0.00 0.00 0.00 99 1026.7
20260830042640 75 114 0.0 2.0 0.00 0.00 0.00 99 1027.0
20260830042136 75 125 1.0 3.0 0.00 0.00 0.00 99 1027.0
20260830041634 74 117 3.0 3.0 0.00 0.00 0.00 99 1027.0
20260830041134 75 135 2.0 3.0 0.00 0.00 0.00 98 1027.0
20260830040629 75 109 0.0 1.0 0.00 0.00 0.00 98 1027.1
20260830040126 75 108 0.0 1.0 0.00 0.00 0.00 98 1027.2
20260830035624 75 108 0.0 1.0 0.00 0.02 0.02 98 1027.2
20260830035119 75 111 0.0 1.0 0.00 0.02 0.02 98 1027.2
20260830034614 75 113 0.0 1.0 0.00 0.02 0.02 98 1027.4
20260830034114 75 113 0.0 1.0 0.00 0.02 0.02 98 1027.1
20260830033609 75 113 0.0 1.0 0.00 0.02 0.02 97 1027.1
20260830033104 75 113 0.0 1.0 0.00 0.02 0.02 97 1027.2
20260830032604 75 108 1.0 2.0 0.00 0.02 0.02 97 1027.2
20260830032059 75 119 1.0 2.0 0.00 0.02 0.02 97 1027.4
20260830031554 75 114 0.0 2.0 0.00 0.02 0.02 97 1027.3
20260830031049 75 109 1.0 1.0 0.00 0.02 0.02 97 1027.5
20260830030545 75 123 1.0 1.0 0.00 0.02 0.02 96 1027.5
20260830030040 75 124 1.0 2.0 0.00 0.02 0.02 96 1027.6
20260830025538 75 124 1.0 1.0 0.00 0.02 0.02 96 1027.7
20260830025033 75 123 2.0 2.0 0.00 0.02 0.02 96 1027.4
20260830024528 75 113 1.0 1.0 0.00 0.02 0.02 95 1027.4
20260830024026 76 113 0.0 1.0 0.00 0.02 0.02 95 1027.5
20260830023524 76 113 1.0 1.0 0.00 0.02 0.02 95 1027.5
20260830023020 76 112 0.0 1.0 0.00 0.02 0.02 95 1027.6
20260830022514 76 112 0.0 1.0 0.00 0.02 0.02 94 1027.6